Time,TemperatureF,DewpointF,PressureIn,WindDirection,WindDirectionDegrees,WindSpeedMPH,WindSpeedGustMPH,Humidity,HourlyPrecipIn,Conditions,Clouds,dailyrainin,SoftwareType,DateUTC
2013-01-10 00:00:00,49.0,47.6,30.42,West,277,0.0,0.0,95,0.00,,,0.00,Wunderground v.1.15,2013-01-10 05:00:00,
2013-01-10 00:05:00,48.9,47.5,30.42,West,277,0.0,0.0,95,0.00,,,0.00,Wunderground v.1.15,2013-01-10 05:05:00,
2013-01-10 00:10:00,48.9,47.5,30.43,West,277,0.0,0.0,95,0.00,,,0.00,Wunderground v.1.15,2013-01-10 05:10:00,
2013-01-10 00:15:00,48.8,47.4,30.43,West,277,0.0,0.0,95,0.00,,,0.00,Wunderground v.1.15,2013-01-10 05:15:00,
2013-01-10 00:20:00,48.7,47.3,30.43,West,277,0.0,0.0,95,0.00,,,0.00,Wunderground v.1.15,2013-01-10 05:20:00,
2013-01-10 00:25:00,48.6,47.2,30.43,West,277,0.0,0.0,95,0.00,,,0.00,Wunderground v.1.15,2013-01-10 05:25:00,
2013-01-10 00:30:00,48.5,46.9,30.43,West,277,0.0,0.0,94,0.00,,,0.00,Wunderground v.1.15,2013-01-10 05:30:00,
2013-01-10 00:35:00,48.3,46.7,30.43,West,277,0.0,0.0,94,0.00,,,0.00,Wunderground v.1.15,2013-01-10 05:35:00,
2013-01-10 00:40:00,48.2,46.8,30.43,West,277,0.0,0.0,95,0.00,,,0.00,Wunderground v.1.15,2013-01-10 05:40:00,
2013-01-10 00:45:00,48.2,46.8,30.43,West,277,0.0,0.0,95,0.00,,,0.00,Wunderground v.1.15,2013-01-10 05:45:00,
2013-01-10 00:55:00,48.2,46.8,30.43,West,277,0.0,0.0,95,0.00,,,0.00,Wunderground v.1.15,2013-01-10 05:55:00,
2013-01-10 01:00:00,48.2,46.8,30.44,West,277,0.0,0.0,95,0.00,,,0.00,Wunderground v.1.15,2013-01-10 06:00:00,
2013-01-10 01:10:00,48.1,46.7,30.43,West,277,0.0,0.0,95,0.00,,,0.00,Wunderground v.1.15,2013-01-10 06:10:00,
2013-01-10 01:15:00,48.0,46.6,30.43,West,277,0.0,0.0,95,0.00,,,0.00,Wunderground v.1.15,2013-01-10 06:15:00,
2013-01-10 01:20:00,47.9,46.5,30.43,West,277,0.0,0.0,95,0.00,,,0.00,Wunderground v.1.15,2013-01-10 06:20:00,
2013-01-10 01:25:00,48.1,46.7,30.43,West,277,0.0,0.0,95,0.00,,,0.00,Wunderground v.1.15,2013-01-10 06:25:00,
2013-01-10 01:35:00,48.0,46.6,30.43,West,277,0.0,0.0,95,0.00,,,0.00,Wunderground v.1.15,2013-01-10 06:35:00,
2013-01-10 01:40:00,48.0,46.6,30.44,West,277,0.0,0.0,95,0.00,,,0.00,Wunderground v.1.15,2013-01-10 06:40:00,
2013-01-10 01:45:00,48.0,46.6,30.43,West,277,0.0,0.0,95,0.00,,,0.00,Wunderground v.1.15,2013-01-10 06:45:00,
2013-01-10 01:55:00,47.8,46.4,30.44,West,277,0.0,0.0,95,0.00,,,0.00,Wunderground v.1.15,2013-01-10 06:55:00,
2013-01-10 02:00:00,47.7,46.3,30.44,West,277,0.0,0.0,95,0.00,,,0.00,Wunderground v.1.15,2013-01-10 07:00:00,
2013-01-10 02:05:00,47.7,46.3,30.43,West,277,0.0,0.0,95,0.00,,,0.00,Wunderground v.1.15,2013-01-10 07:05:00,
2013-01-10 02:10:00,47.8,46.7,30.43,West,277,0.0,0.0,96,0.00,,,0.00,Wunderground v.1.15,2013-01-10 07:10:00,
2013-01-10 02:15:00,47.7,46.3,30.43,West,277,0.0,0.0,95,0.00,,,0.00,Wunderground v.1.15,2013-01-10 07:15:00,
2013-01-10 02:25:00,47.5,46.1,30.43,West,277,0.0,0.0,95,0.00,,,0.00,Wunderground v.1.15,2013-01-10 07:25:00,
2013-01-10 02:30:00,47.4,46.0,30.43,West,277,0.0,0.0,95,0.00,,,0.00,Wunderground v.1.15,2013-01-10 07:30:00,
2013-01-10 02:35:00,47.3,45.9,30.43,West,277,0.0,0.0,95,0.00,,,0.00,Wunderground v.1.15,2013-01-10 07:35:00,
2013-01-10 02:40:00,47.2,45.8,30.43,West,277,0.0,0.0,95,0.00,,,0.00,Wunderground v.1.15,2013-01-10 07:40:00,
2013-01-10 02:50:00,47.2,46.1,30.43,West,277,0.0,0.0,96,0.00,,,0.00,Wunderground v.1.15,2013-01-10 07:50:00,
2013-01-10 02:55:00,47.3,46.2,30.43,West,277,0.0,0.0,96,0.00,,,0.00,Wunderground v.1.15,2013-01-10 07:55:00,
2013-01-10 03:05:00,47.2,46.1,30.43,West,277,0.0,0.0,96,0.00,,,0.00,Wunderground v.1.15,2013-01-10 08:05:00,
2013-01-10 03:10:00,47.2,45.8,30.43,West,277,0.0,0.0,95,0.00,,,0.00,Wunderground v.1.15,2013-01-10 08:10:00,
2013-01-10 03:15:00,47.3,46.2,30.43,West,277,0.0,0.0,96,0.00,,,0.00,Wunderground v.1.15,2013-01-10 08:15:00,
2013-01-10 03:20:00,47.3,46.2,30.44,West,277,0.0,0.0,96,0.00,,,0.00,Wunderground v.1.15,2013-01-10 08:20:00,
2013-01-10 03:30:00,47.2,46.1,30.44,West,277,0.0,0.0,96,0.00,,,0.00,Wunderground v.1.15,2013-01-10 08:30:00,
2013-01-10 03:35:00,47.1,46.0,30.44,West,277,0.0,0.0,96,0.00,,,0.00,Wunderground v.1.15,2013-01-10 08:35:00,
2013-01-10 03:40:00,47.0,45.6,30.43,West,277,0.0,0.0,95,0.00,,,0.00,Wunderground v.1.15,2013-01-10 08:40:00,
2013-01-10 03:50:00,46.9,45.8,30.43,West,277,0.0,0.0,96,0.00,,,0.00,Wunderground v.1.15,2013-01-10 08:50:00,
2013-01-10 03:55:00,46.8,45.7,30.43,West,277,0.0,0.0,96,0.00,,,0.00,Wunderground v.1.15,2013-01-10 08:55:00,
2013-01-10 04:00:00,46.7,45.6,30.43,West,277,0.0,0.0,96,0.00,,,0.00,Wunderground v.1.15,2013-01-10 09:00:00,
2013-01-10 04:10:00,46.5,45.4,30.42,West,277,0.0,0.0,96,0.00,,,0.00,Wunderground v.1.15,2013-01-10 09:10:00,
2013-01-10 04:15:00,46.3,44.9,30.42,West,277,0.0,0.0,95,0.00,,,0.00,Wunderground v.1.15,2013-01-10 09:15:00,
2013-01-10 04:20:00,46.2,45.1,30.42,West,277,0.0,0.0,96,0.00,,,0.00,Wunderground v.1.15,2013-01-10 09:20:00,
2013-01-10 04:30:00,46.0,44.6,30.43,West,277,0.0,0.0,95,0.00,,,0.00,Wunderground v.1.15,2013-01-10 09:30:00,
2013-01-10 04:35:00,45.8,44.7,30.42,West,277,0.0,0.0,96,0.00,,,0.00,Wunderground v.1.15,2013-01-10 09:35:00,
2013-01-10 04:40:00,45.7,44.6,30.42,West,277,0.0,0.0,96,0.00,,,0.00,Wunderground v.1.15,2013-01-10 09:40:00,
2013-01-10 04:45:00,45.8,44.7,30.42,West,277,0.0,0.0,96,0.00,,,0.00,Wunderground v.1.15,2013-01-10 09:45:00,
2013-01-10 04:55:00,45.7,44.6,30.42,West,277,0.0,0.0,96,0.00,,,0.00,Wunderground v.1.15,2013-01-10 09:55:00,
2013-01-10 05:00:00,45.5,44.4,30.42,West,277,0.0,0.0,96,0.00,,,0.00,Wunderground v.1.15,2013-01-10 10:00:00,
2013-01-10 05:05:00,45.4,44.3,30.42,West,277,0.0,0.0,96,0.00,,,0.00,Wunderground v.1.15,2013-01-10 10:05:00,
2013-01-10 05:15:00,45.2,44.1,30.42,West,277,0.0,0.0,96,0.00,,,0.00,Wunderground v.1.15,2013-01-10 10:15:00,
2013-01-10 05:20:00,45.4,44.3,30.43,West,277,0.0,0.0,96,0.00,,,0.00,Wunderground v.1.15,2013-01-10 10:20:00,
2013-01-10 05:25:00,45.5,44.4,30.43,West,277,0.0,0.0,96,0.00,,,0.00,Wunderground v.1.15,2013-01-10 10:25:00,
2013-01-10 05:35:00,45.2,44.1,30.43,West,277,0.0,0.0,96,0.00,,,0.00,Wunderground v.1.15,2013-01-10 10:35:00,
2013-01-10 05:40:00,45.1,44.0,30.43,West,277,0.0,0.0,96,0.00,,,0.00,Wunderground v.1.15,2013-01-10 10:40:00,
2013-01-10 05:45:00,45.0,43.9,30.44,West,277,0.0,0.0,96,0.00,,,0.00,Wunderground v.1.15,2013-01-10 10:45:00,
2013-01-10 05:55:00,44.8,43.7,30.44,West,277,0.0,0.0,96,0.00,,,0.00,Wunderground v.1.15,2013-01-10 10:55:00,
2013-01-10 06:00:00,44.7,43.6,30.44,West,277,0.0,0.0,96,0.00,,,0.00,Wunderground v.1.15,2013-01-10 11:00:00,
2013-01-10 06:05:00,44.7,43.6,30.44,West,277,0.0,0.0,96,0.00,,,0.00,Wunderground v.1.15,2013-01-10 11:05:00,
2013-01-10 06:15:00,44.7,43.9,30.45,West,277,0.0,0.0,97,0.00,,,0.00,Wunderground v.1.15,2013-01-10 11:15:00,
2013-01-10 06:20:00,44.6,43.8,30.45,West,277,0.0,0.0,97,0.00,,,0.00,Wunderground v.1.15,2013-01-10 11:20:00,
2013-01-10 06:25:00,44.5,43.7,30.46,West,277,0.0,0.0,97,0.00,,,0.00,Wunderground v.1.15,2013-01-10 11:25:00,
2013-01-10 06:35:00,44.4,43.3,30.46,West,277,0.0,0.0,96,0.00,,,0.00,Wunderground v.1.15,2013-01-10 11:35:00,
2013-01-10 06:40:00,44.5,43.7,30.46,West,277,0.0,0.0,97,0.00,,,0.00,Wunderground v.1.15,2013-01-10 11:40:00,
2013-01-10 06:45:00,44.5,43.7,30.46,West,277,0.0,0.0,97,0.00,,,0.00,Wunderground v.1.15,2013-01-10 11:45:00,
2013-01-10 06:55:00,44.4,43.6,30.46,West,277,0.0,0.0,97,0.00,,,0.00,Wunderground v.1.15,2013-01-10 11:55:00,
2013-01-10 07:00:00,44.4,43.6,30.46,West,277,0.0,0.0,97,0.00,,,0.00,Wunderground v.1.15,2013-01-10 12:00:00,
2013-01-10 07:05:00,44.3,43.5,30.46,West,277,0.0,0.0,97,0.00,,,0.00,Wunderground v.1.15,2013-01-10 12:05:00,
2013-01-10 07:15:00,44.1,43.3,30.47,West,277,0.0,0.0,97,0.00,,,0.00,Wunderground v.1.15,2013-01-10 12:15:00,
2013-01-10 07:20:00,44.2,43.4,30.47,West,277,0.0,0.0,97,0.00,,,0.00,Wunderground v.1.15,2013-01-10 12:20:00,
2013-01-10 07:25:00,44.0,43.2,30.47,West,277,0.0,0.0,97,0.00,,,0.00,Wunderground v.1.15,2013-01-10 12:25:00,
2013-01-10 07:35:00,43.6,42.5,30.47,West,277,0.0,0.0,96,0.00,,,0.00,Wunderground v.1.15,2013-01-10 12:35:00,
2013-01-10 07:40:00,43.6,42.8,30.48,West,277,0.0,0.0,97,0.00,,,0.00,Wunderground v.1.15,2013-01-10 12:40:00,
2013-01-10 07:45:00,43.4,42.6,30.48,West,277,0.0,0.0,97,0.00,,,0.00,Wunderground v.1.15,2013-01-10 12:45:00,
2013-01-10 07:50:00,43.4,42.3,30.49,West,277,0.0,0.0,96,0.00,,,0.00,Wunderground v.1.15,2013-01-10 12:50:00,
2013-01-10 08:00:00,43.8,43.0,30.49,West,277,0.0,0.0,97,0.00,,,0.00,Wunderground v.1.15,2013-01-10 13:00:00,
2013-01-10 08:05:00,43.9,43.1,30.49,West,277,0.0,0.0,97,0.00,,,0.00,Wunderground v.1.15,2013-01-10 13:05:00,
2013-01-10 08:10:00,44.1,43.3,30.50,West,277,0.0,0.0,97,0.00,,,0.00,Wunderground v.1.15,2013-01-10 13:10:00,
2013-01-10 08:15:00,44.4,43.6,30.50,West,277,0.0,0.0,97,0.00,,,0.00,Wunderground v.1.15,2013-01-10 13:15:00,
2013-01-10 08:25:00,44.9,44.1,30.51,West,277,0.0,0.0,97,0.00,,,0.00,Wunderground v.1.15,2013-01-10 13:25:00,
2013-01-10 08:30:00,45.2,44.7,30.50,West,277,0.0,0.0,98,0.00,,,0.00,Wunderground v.1.15,2013-01-10 13:30:00,
2013-01-10 08:40:00,46.3,45.8,30.51,West,277,0.0,0.0,98,0.00,,,0.00,Wunderground v.1.15,2013-01-10 13:40:00,
2013-01-10 08:45:00,46.7,46.2,30.51,West,277,0.0,0.0,98,0.00,,,0.00,Wunderground v.1.15,2013-01-10 13:45:00,
2013-01-10 08:50:00,47.0,46.5,30.51,West,277,0.0,0.0,98,0.00,,,0.00,Wunderground v.1.15,2013-01-10 13:50:00,
2013-01-10 08:55:00,47.2,46.7,30.51,West,277,0.0,0.0,98,0.00,,,0.00,Wunderground v.1.15,2013-01-10 13:55:00,
2013-01-10 09:05:00,47.9,47.4,30.51,West,277,0.0,0.0,98,0.00,,,0.00,Wunderground v.1.15,2013-01-10 14:05:00,
2013-01-10 09:10:00,48.4,47.9,30.51,West,277,0.0,0.0,98,0.00,,,0.00,Wunderground v.1.15,2013-01-10 14:10:00,
2013-01-10 09:20:00,49.4,48.6,30.51,ENE,66,0.0,0.0,97,0.00,,,0.00,Wunderground v.1.15,2013-01-10 14:20:00,
2013-01-10 09:25:00,50.7,46.7,30.51,NNE,16,0.0,0.0,86,0.00,,,0.00,Wunderground v.1.15,2013-01-10 14:25:00,
2013-01-10 09:30:00,51.8,45.5,30.51,ENE,58,0.0,0.0,79,0.00,,,0.00,Wunderground v.1.15,2013-01-10 14:30:00,
2013-01-10 09:35:00,52.6,44.2,30.51,ENE,69,1.0,1.0,73,0.00,,,0.00,Wunderground v.1.15,2013-01-10 14:35:00,
2013-01-10 09:45:00,53.1,43.6,30.51,ENE,57,0.0,1.0,70,0.00,,,0.00,Wunderground v.1.15,2013-01-10 14:45:00,
2013-01-10 09:50:00,53.3,43.8,30.52,ENE,57,0.0,0.0,70,0.00,,,0.00,Wunderground v.1.15,2013-01-10 14:50:00,
2013-01-10 09:55:00,53.8,42.7,30.51,ENE,67,1.0,1.0,66,0.00,,,0.00,Wunderground v.1.15,2013-01-10 14:55:00,
2013-01-10 10:00:00,54.6,41.8,30.51,NE,36,1.0,1.0,62,0.00,,,0.00,Wunderground v.1.15,2013-01-10 15:00:00,
2013-01-10 10:10:00,55.9,42.2,30.51,NW,320,1.0,3.0,60,0.00,,,0.00,Wunderground v.1.15,2013-01-10 15:10:00,
2013-01-10 10:15:00,56.2,41.2,30.51,ENE,72,1.0,3.0,57,0.00,,,0.00,Wunderground v.1.15,2013-01-10 15:15:00,
2013-01-10 10:20:00,56.2,40.2,30.51,ENE,57,2.0,2.0,55,0.00,,,0.00,Wunderground v.1.15,2013-01-10 15:20:00,
2013-01-10 10:30:00,56.4,40.0,30.51,NE,47,2.0,2.0,54,0.00,,,0.00,Wunderground v.1.15,2013-01-10 15:30:00,
2013-01-10 10:35:00,56.5,40.0,30.51,ENE,60,2.0,2.0,54,0.00,,,0.00,Wunderground v.1.15,2013-01-10 15:35:00,
2013-01-10 10:40:00,56.7,39.3,30.51,NE,39,1.0,2.0,52,0.00,,,0.00,Wunderground v.1.15,2013-01-10 15:40:00,
2013-01-10 10:50:00,56.7,37.7,30.51,NE,48,2.0,2.0,49,0.00,,,0.00,Wunderground v.1.15,2013-01-10 15:50:00,
2013-01-10 10:55:00,56.7,38.8,30.51,NNE,15,2.0,3.0,51,0.00,,,0.00,Wunderground v.1.15,2013-01-10 15:55:00,
2013-01-10 11:00:00,56.9,37.9,30.51,ESE,103,1.0,2.0,49,0.00,,,0.00,Wunderground v.1.15,2013-01-10 16:00:00,
2013-01-10 11:10:00,57.5,38.5,30.50,ENE,57,1.0,2.0,49,0.00,,,0.00,Wunderground v.1.15,2013-01-10 16:10:00,
2013-01-10 11:15:00,57.8,37.7,30.50,NNE,24,1.0,2.0,47,0.00,,,0.00,Wunderground v.1.15,2013-01-10 16:15:00,
2013-01-10 11:20:00,58.3,38.7,30.50,ESE,107,2.0,3.0,48,0.00,,,0.00,Wunderground v.1.15,2013-01-10 16:20:00,
2013-01-10 11:25:00,58.7,37.4,30.50,East,98,2.0,3.0,45,0.00,,,0.00,Wunderground v.1.15,2013-01-10 16:25:00,
2013-01-10 11:35:00,58.4,36.6,30.49,ENE,58,2.0,2.0,44,0.00,,,0.00,Wunderground v.1.15,2013-01-10 16:35:00,
2013-01-10 11:40:00,58.5,37.8,30.49,ENE,69,1.0,1.0,46,0.00,,,0.00,Wunderground v.1.15,2013-01-10 16:40:00,
2013-01-10 11:50:00,59.1,36.6,30.48,East,97,1.0,3.0,43,0.00,,,0.00,Wunderground v.1.15,2013-01-10 16:50:00,
2013-01-10 11:55:00,59.2,34.9,30.48,ESE,117,2.0,3.0,40,0.00,,,0.00,Wunderground v.1.15,2013-01-10 16:55:00,
2013-01-10 12:00:00,59.3,35.6,30.48,East,88,1.0,1.0,41,0.00,,,0.00,Wunderground v.1.15,2013-01-10 17:00:00,
2013-01-10 12:05:00,59.3,35.0,30.47,ENE,63,1.0,1.0,40,0.00,,,0.00,Wunderground v.1.15,2013-01-10 17:05:00,
2013-01-10 12:15:00,59.4,36.3,30.47,ENE,57,1.0,1.0,42,0.00,,,0.00,Wunderground v.1.15,2013-01-10 17:15:00,
2013-01-10 12:20:00,59.8,36.0,30.47,NNE,32,1.0,2.0,41,0.00,,,0.00,Wunderground v.1.15,2013-01-10 17:20:00,
2013-01-10 12:25:00,60.2,34.5,30.47,ESE,105,1.0,2.0,38,0.00,,,0.00,Wunderground v.1.15,2013-01-10 17:25:00,
2013-01-10 12:30:00,60.5,36.0,30.46,North,5,1.0,1.0,40,0.00,,,0.00,Wunderground v.1.15,2013-01-10 17:30:00,
2013-01-10 12:40:00,60.9,35.8,30.46,East,89,1.0,1.0,39,0.00,,,0.00,Wunderground v.1.15,2013-01-10 17:40:00,
2013-01-10 12:45:00,61.1,36.6,30.46,NNE,33,1.0,3.0,40,0.00,,,0.00,Wunderground v.1.15,2013-01-10 17:45:00,
2013-01-10 12:55:00,61.0,35.2,30.45,ESE,103,1.0,2.0,38,0.00,,,0.00,Wunderground v.1.15,2013-01-10 17:55:00,
2013-01-10 13:00:00,60.8,35.0,30.45,NNW,347,1.0,2.0,38,0.00,,,0.00,Wunderground v.1.15,2013-01-10 18:00:00,
2013-01-10 13:05:00,60.7,34.9,30.45,ENE,60,1.0,2.0,38,0.00,,,0.00,Wunderground v.1.15,2013-01-10 18:05:00,
2013-01-10 13:10:00,60.5,36.0,30.44,ENE,59,1.0,1.0,40,0.00,,,0.00,Wunderground v.1.15,2013-01-10 18:10:00,
2013-01-10 13:20:00,60.5,34.7,30.44,NE,47,0.0,0.0,38,0.00,,,0.00,Wunderground v.1.15,2013-01-10 18:20:00,
2013-01-10 13:25:00,60.5,35.4,30.44,NE,39,0.0,0.0,39,0.00,,,0.00,Wunderground v.1.15,2013-01-10 18:25:00,
2013-01-10 13:30:00,60.5,35.4,30.44,NE,44,0.0,0.0,39,0.00,,,0.00,Wunderground v.1.15,2013-01-10 18:30:00,
2013-01-10 13:40:00,60.6,33.5,30.44,East,87,1.0,1.0,36,0.00,,,0.00,Wunderground v.1.15,2013-01-10 18:40:00,
2013-01-10 13:45:00,60.6,33.5,30.44,NE,41,0.0,1.0,36,0.00,,,0.00,Wunderground v.1.15,2013-01-10 18:45:00,
2013-01-10 13:50:00,60.6,33.5,30.44,ENE,58,0.0,0.0,36,0.00,,,0.00,Wunderground v.1.15,2013-01-10 18:50:00,
2013-01-10 13:55:00,60.7,34.3,30.44,ENE,58,0.0,0.0,37,0.00,,,0.00,Wunderground v.1.15,2013-01-10 18:55:00,
2013-01-10 14:05:00,60.7,33.6,30.43,ENE,72,0.0,1.0,36,0.00,,,0.00,Wunderground v.1.15,2013-01-10 19:05:00,
2013-01-10 14:10:00,60.7,33.6,30.43,East,101,1.0,1.0,36,0.00,,,0.00,Wunderground v.1.15,2013-01-10 19:10:00,
2013-01-10 14:15:00,60.6,34.2,30.44,East,101,1.0,1.0,37,0.00,,,0.00,Wunderground v.1.15,2013-01-10 19:15:00,
2013-01-10 14:25:00,60.7,32.9,30.44,East,101,0.0,1.0,35,0.00,,,0.00,Wunderground v.1.15,2013-01-10 19:25:00,
2013-01-10 14:30:00,60.7,34.9,30.44,East,101,0.0,0.0,38,0.00,,,0.00,Wunderground v.1.15,2013-01-10 19:30:00,
2013-01-10 14:35:00,60.9,34.4,30.44,East,101,0.0,0.0,37,0.00,,,0.00,Wunderground v.1.15,2013-01-10 19:35:00,
2013-01-10 14:45:00,61.1,34.6,30.44,ENE,74,0.0,0.0,37,0.00,,,0.00,Wunderground v.1.15,2013-01-10 19:45:00,
2013-01-10 14:50:00,61.1,33.9,30.44,East,92,0.0,0.0,36,0.00,,,0.00,Wunderground v.1.15,2013-01-10 19:50:00,
2013-01-10 14:55:00,61.0,34.5,30.43,ENE,67,0.0,0.0,37,0.00,,,0.00,Wunderground v.1.15,2013-01-10 19:55:00,
2013-01-10 15:00:00,61.0,34.5,30.43,ENE,65,0.0,1.0,37,0.00,,,0.00,Wunderground v.1.15,2013-01-10 20:00:00,
2013-01-10 15:10:00,60.9,34.4,30.43,ENE,69,0.0,0.0,37,0.00,,,0.00,Wunderground v.1.15,2013-01-10 20:10:00,
2013-01-10 15:15:00,60.8,35.0,30.43,ENE,69,0.0,0.0,38,0.00,,,0.00,Wunderground v.1.15,2013-01-10 20:15:00,
2013-01-10 15:20:00,60.8,35.0,30.43,ENE,69,0.0,0.0,38,0.00,,,0.00,Wunderground v.1.15,2013-01-10 20:20:00,
2013-01-10 15:30:00,60.9,35.1,30.43,ENE,69,0.0,0.0,38,0.00,,,0.00,Wunderground v.1.15,2013-01-10 20:30:00,
2013-01-10 15:35:00,61.0,35.8,30.43,ENE,78,0.0,1.0,39,0.00,,,0.00,Wunderground v.1.15,2013-01-10 20:35:00,
2013-01-10 15:40:00,61.0,35.8,30.43,ENE,78,0.0,1.0,39,0.00,,,0.00,Wunderground v.1.15,2013-01-10 20:40:00,
2013-01-10 15:50:00,61.1,35.9,30.43,NNE,33,1.0,1.0,39,0.00,,,0.00,Wunderground v.1.15,2013-01-10 20:50:00,
2013-01-10 15:55:00,61.2,36.0,30.43,NNE,33,0.0,1.0,39,0.00,,,0.00,Wunderground v.1.15,2013-01-10 20:55:00,
2013-01-10 16:00:00,61.2,36.0,30.43,East,98,0.0,0.0,39,0.00,,,0.00,Wunderground v.1.15,2013-01-10 21:00:00,
2013-01-10 16:10:00,61.1,35.3,30.43,East,98,0.0,1.0,38,0.00,,,0.00,Wunderground v.1.15,2013-01-10 21:10:00,
2013-01-10 16:15:00,60.9,36.4,30.43,ENE,64,0.0,1.0,40,0.00,,,0.00,Wunderground v.1.15,2013-01-10 21:15:00,
2013-01-10 16:20:00,60.6,36.1,30.44,ESE,102,0.0,0.0,40,0.00,,,0.00,Wunderground v.1.15,2013-01-10 21:20:00,
2013-01-10 16:25:00,60.5,37.3,30.44,ESE,102,0.0,0.0,42,0.00,,,0.00,Wunderground v.1.15,2013-01-10 21:25:00,
2013-01-10 16:35:00,60.2,37.0,30.44,ESE,102,0.0,0.0,42,0.00,,,0.00,Wunderground v.1.15,2013-01-10 21:35:00,
2013-01-10 16:40:00,60.0,36.8,30.44,ESE,102,0.0,0.0,42,0.00,,,0.00,Wunderground v.1.15,2013-01-10 21:40:00,
2013-01-10 16:45:00,59.8,38.4,30.44,ESE,102,0.0,0.0,45,0.00,,,0.00,Wunderground v.1.15,2013-01-10 21:45:00,
2013-01-10 16:50:00,59.5,38.7,30.44,ESE,102,0.0,0.0,46,0.00,,,0.00,Wunderground v.1.15,2013-01-10 21:50:00,
2013-01-10 17:00:00,58.5,39.9,30.44,ESE,102,0.0,0.0,50,0.00,,,0.00,Wunderground v.1.15,2013-01-10 22:00:00,
2013-01-10 17:05:00,58.0,39.5,30.44,ESE,102,0.0,0.0,50,0.00,,,0.00,Wunderground v.1.15,2013-01-10 22:05:00,
2013-01-10 17:10:00,57.5,39.5,30.44,ESE,102,0.0,0.0,51,0.00,,,0.00,Wunderground v.1.15,2013-01-10 22:10:00,
2013-01-10 17:20:00,56.2,39.8,30.44,ESE,102,0.0,0.0,54,0.00,,,0.00,Wunderground v.1.15,2013-01-10 22:20:00,
2013-01-10 17:25:00,55.3,39.9,30.44,ESE,102,0.0,0.0,56,0.00,,,0.00,Wunderground v.1.15,2013-01-10 22:25:00,
2013-01-10 17:30:00,54.7,40.2,30.44,ESE,102,0.0,0.0,58,0.00,,,0.00,Wunderground v.1.15,2013-01-10 22:30:00,
2013-01-10 17:40:00,53.5,39.9,30.44,ESE,102,0.0,0.0,60,0.00,,,0.00,Wunderground v.1.15,2013-01-10 22:40:00,
2013-01-10 17:45:00,53.0,39.5,30.44,ESE,102,0.0,0.0,60,0.00,,,0.00,Wunderground v.1.15,2013-01-10 22:45:00,
2013-01-10 17:50:00,52.4,39.8,30.45,ESE,102,0.0,0.0,62,0.00,,,0.00,Wunderground v.1.15,2013-01-10 22:50:00,
2013-01-10 18:00:00,51.6,39.4,30.44,ESE,102,0.0,0.0,63,0.00,,,0.00,Wunderground v.1.15,2013-01-10 23:00:00,
2013-01-10 18:05:00,51.2,39.8,30.45,ESE,102,0.0,0.0,65,0.00,,,0.00,Wunderground v.1.15,2013-01-10 23:05:00,
2013-01-10 18:10:00,50.9,39.5,30.44,ESE,102,0.0,0.0,65,0.00,,,0.00,Wunderground v.1.15,2013-01-10 23:10:00,
2013-01-10 18:15:00,50.4,39.5,30.44,ESE,102,0.0,0.0,66,0.00,,,0.00,Wunderground v.1.15,2013-01-10 23:15:00,
2013-01-10 18:25:00,49.6,39.5,30.45,ESE,102,0.0,0.0,68,0.00,,,0.00,Wunderground v.1.15,2013-01-10 23:25:00,
2013-01-10 18:30:00,49.3,39.2,30.45,ESE,102,0.0,0.0,68,0.00,,,0.00,Wunderground v.1.15,2013-01-10 23:30:00,
2013-01-10 18:35:00,49.0,39.3,30.45,ESE,102,0.0,0.0,69,0.00,,,0.00,Wunderground v.1.15,2013-01-10 23:35:00,
2013-01-10 18:45:00,48.7,39.4,30.45,ESE,102,0.0,0.0,70,0.00,,,0.00,Wunderground v.1.15,2013-01-10 23:45:00,
2013-01-10 18:50:00,48.5,39.2,30.45,ESE,102,0.0,0.0,70,0.00,,,0.00,Wunderground v.1.15,2013-01-10 23:50:00,
2013-01-10 18:55:00,48.2,39.2,30.45,ESE,102,0.0,0.0,71,0.00,,,0.00,Wunderground v.1.15,2013-01-10 23:55:00,
2013-01-10 19:05:00,48.0,39.4,30.44,ESE,102,0.0,0.0,72,0.00,,,0.00,Wunderground v.1.15,2013-01-11 00:05:00,
2013-01-10 19:10:00,47.8,39.2,30.44,ESE,102,0.0,0.0,72,0.00,,,0.00,Wunderground v.1.15,2013-01-11 00:10:00,
2013-01-10 19:15:00,47.8,39.6,30.44,ESE,102,0.0,0.0,73,0.00,,,0.00,Wunderground v.1.15,2013-01-11 00:15:00,
2013-01-10 19:20:00,47.6,39.4,30.44,ESE,102,0.0,0.0,73,0.00,,,0.00,Wunderground v.1.15,2013-01-11 00:20:00,
2013-01-10 19:30:00,47.3,39.4,30.44,ESE,102,0.0,0.0,74,0.00,,,0.00,Wunderground v.1.15,2013-01-11 00:30:00,
2013-01-10 19:35:00,47.1,39.6,30.43,ESE,102,0.0,0.0,75,0.00,,,0.00,Wunderground v.1.15,2013-01-11 00:35:00,
2013-01-10 19:40:00,46.8,39.3,30.43,ESE,102,0.0,0.0,75,0.00,,,0.00,Wunderground v.1.15,2013-01-11 00:40:00,
2013-01-10 19:50:00,46.5,39.7,30.43,ESE,102,0.0,0.0,77,0.00,,,0.00,Wunderground v.1.15,2013-01-11 00:50:00,
2013-01-10 19:55:00,46.3,39.1,30.43,ESE,102,0.0,0.0,76,0.00,,,0.00,Wunderground v.1.15,2013-01-11 00:55:00,
2013-01-10 20:00:00,46.1,39.3,30.43,ESE,102,0.0,0.0,77,0.00,,,0.00,Wunderground v.1.15,2013-01-11 01:00:00,
2013-01-10 20:05:00,46.0,39.2,30.43,ESE,102,0.0,0.0,77,0.00,,,0.00,Wunderground v.1.15,2013-01-11 01:05:00,
2013-01-10 20:15:00,45.8,39.3,30.43,ESE,102,0.0,0.0,78,0.00,,,0.00,Wunderground v.1.15,2013-01-11 01:15:00,
2013-01-10 20:20:00,45.6,39.1,30.43,ESE,102,0.0,0.0,78,0.00,,,0.00,Wunderground v.1.15,2013-01-11 01:20:00,
2013-01-10 20:25:00,45.7,39.2,30.43,ESE,102,0.0,0.0,78,0.00,,,0.00,Wunderground v.1.15,2013-01-11 01:25:00,
2013-01-10 20:35:00,45.5,39.0,30.44,ESE,102,0.0,0.0,78,0.00,,,0.00,Wunderground v.1.15,2013-01-11 01:35:00,
2013-01-10 20:40:00,45.5,39.0,30.44,ESE,102,0.0,0.0,78,0.00,,,0.00,Wunderground v.1.15,2013-01-11 01:40:00,
2013-01-10 20:45:00,45.4,39.3,30.43,ESE,102,0.0,0.0,79,0.00,,,0.00,Wunderground v.1.15,2013-01-11 01:45:00,
2013-01-10 20:55:00,45.3,39.2,30.44,ESE,102,0.0,0.0,79,0.00,,,0.00,Wunderground v.1.15,2013-01-11 01:55:00,
2013-01-10 21:00:00,45.1,39.0,30.44,ESE,102,0.0,0.0,79,0.00,,,0.00,Wunderground v.1.15,2013-01-11 02:00:00,
2013-01-10 21:05:00,45.0,39.2,30.44,ESE,102,0.0,0.0,80,0.00,,,0.00,Wunderground v.1.15,2013-01-11 02:05:00,
2013-01-10 21:10:00,44.8,39.0,30.44,ESE,102,0.0,0.0,80,0.00,,,0.00,Wunderground v.1.15,2013-01-11 02:10:00,
2013-01-10 21:20:00,44.6,39.1,30.44,ESE,102,0.0,0.0,81,0.00,,,0.00,Wunderground v.1.15,2013-01-11 02:20:00,
2013-01-10 21:25:00,44.5,39.0,30.43,ESE,102,0.0,0.0,81,0.00,,,0.00,Wunderground v.1.15,2013-01-11 02:25:00,
2013-01-10 21:35:00,44.3,39.2,30.42,ESE,102,0.0,0.0,82,0.00,,,0.00,Wunderground v.1.15,2013-01-11 02:35:00,
2013-01-10 21:40:00,44.3,39.2,30.42,ESE,102,0.0,0.0,82,0.00,,,0.00,Wunderground v.1.15,2013-01-11 02:40:00,
2013-01-10 21:45:00,44.2,39.1,30.42,ESE,102,0.0,0.0,82,0.00,,,0.00,Wunderground v.1.15,2013-01-11 02:45:00,
2013-01-10 21:50:00,44.1,39.0,30.43,ESE,102,0.0,0.0,82,0.00,,,0.00,Wunderground v.1.15,2013-01-11 02:50:00,
2013-01-10 22:00:00,44.0,39.2,30.42,ESE,102,0.0,0.0,83,0.00,,,0.00,Wunderground v.1.15,2013-01-11 03:00:00,
2013-01-10 22:05:00,44.0,39.5,30.42,ESE,102,0.0,0.0,84,0.00,,,0.00,Wunderground v.1.15,2013-01-11 03:05:00,
2013-01-10 22:10:00,44.2,39.7,30.42,ESE,102,0.0,0.0,84,0.00,,,0.00,Wunderground v.1.15,2013-01-11 03:10:00,
2013-01-10 22:20:00,44.2,40.0,30.42,ESE,102,0.0,0.0,85,0.00,,,0.00,Wunderground v.1.15,2013-01-11 03:20:00,
2013-01-10 22:25:00,44.1,39.6,30.42,ESE,102,0.0,0.0,84,0.00,,,0.00,Wunderground v.1.15,2013-01-11 03:25:00,
2013-01-10 22:30:00,44.0,39.8,30.42,ESE,102,0.0,0.0,85,0.00,,,0.00,Wunderground v.1.15,2013-01-11 03:30:00,
2013-01-10 22:40:00,44.1,40.2,30.42,ESE,102,0.0,0.0,86,0.00,,,0.00,Wunderground v.1.15,2013-01-11 03:40:00,
2013-01-10 22:45:00,44.1,39.9,30.41,ESE,102,0.0,0.0,85,0.00,,,0.00,Wunderground v.1.15,2013-01-11 03:45:00,
2013-01-10 22:50:00,44.0,40.1,30.41,ESE,102,0.0,0.0,86,0.00,,,0.00,Wunderground v.1.15,2013-01-11 03:50:00,
2013-01-10 22:55:00,44.0,40.1,30.41,ESE,102,0.0,0.0,86,0.00,,,0.00,Wunderground v.1.15,2013-01-11 03:55:00,
2013-01-10 23:05:00,44.0,40.4,30.41,ESE,102,0.0,0.0,87,0.00,,,0.00,Wunderground v.1.15,2013-01-11 04:05:00,
2013-01-10 23:10:00,44.0,40.4,30.41,ESE,102,0.0,0.0,87,0.00,,,0.00,Wunderground v.1.15,2013-01-11 04:10:00,
2013-01-10 23:15:00,44.0,40.7,30.41,ESE,102,0.0,0.0,88,0.00,,,0.00,Wunderground v.1.15,2013-01-11 04:15:00,
2013-01-10 23:25:00,44.3,41.3,30.41,ESE,102,0.0,0.0,89,0.00,,,0.00,Wunderground v.1.15,2013-01-11 04:25:00,
2013-01-10 23:30:00,44.4,41.4,30.41,ESE,102,0.0,0.0,89,0.00,,,0.00,Wunderground v.1.15,2013-01-11 04:30:00,
2013-01-10 23:35:00,44.6,41.6,30.41,ESE,102,0.0,0.0,89,0.00,,,0.00,Wunderground v.1.15,2013-01-11 04:35:00,
2013-01-10 23:45:00,45.1,42.1,30.40,ESE,102,0.0,0.0,89,0.00,,,0.00,Wunderground v.1.15,2013-01-11 04:45:00,
2013-01-10 23:50:00,45.5,42.4,30.40,ESE,102,0.0,0.0,89,0.00,,,0.00,Wunderground v.1.15,2013-01-11 04:50:00,
2013-01-10 23:55:00,45.9,42.5,30.40,ESE,102,0.0,0.0,88,0.00,,,0.00,Wunderground v.1.15,2013-01-11 04:55:00,